RH
19 19 18 15 14 15 20 26 30 31 28 26 29 32 33 37 44 48 49 48 48 50 53 87 96 93 88 78 61 58 68 75 79 85 85 88 81 53 46 64 86 84 86
21 21 20 18 16 16 20 27 32 33 31 32 33 33 36 43 46 49 52 56 56 58 58 87 91 91 63 84 81 85 88 86 84 84 81 68 71 66 67 45 40 68 83
23 23 22 21 18 16 20 26 34 35 33 35 36 36 41 48 53 58 61 65 65 64 59 62 65 74 88 94 95 97 96 89 75 71 70 59 53 53 77 79 74 64 50
24 24 23 23 22 18 18 23 30 33 35 36 43 45 48 53 58 62 65 67 69 70 68 76 79 87 93 96 98 98 94 68 60 96 99 99 99 98 89 84 76 76 83
25 25 25 26 25 22 19 22 25 30 32 40 51 56 56 62 66 67 67 68 74 72 73 74 74 74 78 75 74 68 69 84 75 83 86 86 96 93 87 82 76 80 79
26 27 27 28 30 28 23 23 26 26 32 42 55 62 66 72 75 71 71 73 72 78 80 81 80 75 75 69 70 70 71 95 98 93 94 94 83 84 78 81 84 88 82
27 28 29 31 34 34 29 22 28 26 29 33 42 50 67 77 79 75 75 77 72 78 85 85 89 89 89 89 83 79 76 75 99 98 98 98 98 98 99 91 95 96 89
29 29 27 29 37 40 37 33 25 30 28 31 33 48 58 64 82 67 77 80 75 80 92 92 90 93 95 95 92 83 74 62 91 99 98 99 98 99 98 96 94 91 91
31 27 22 29 38 41 40 38 36 30 32 33 35 37 60 72 54 66 78 79 71 78 88 92 88 86 90 87 89 83 75 68 71 99 98 97 98 91 83 99 94 94 93
30 23 22 25 33 40 43 42 42 42 39 41 42 46 51 62 83 80 64 66 70 73 82 91 89 88 87 83 84 83 77 76 73 50 97 99 99 49 46 91 95 96 95
28 22 22 23 27 37 45 45 47 51 52 48 49 50 58 58 75 90 84 54 41 72 74 77 91 92 91 84 87 87 82 78 50 24 96 99 95 43 44 45 76 96 99
24 23 26 26 25 28 34 42 45 49 53 53 54 57 62 69 68 80 92 82 62 43 53 70 96 96 95 93 95 90 74 54 25 21 80 99 84 36 32 34 37 54 80
25 27 28 30 30 28 29 32 34 39 46 52 59 59 60 63 71 79 84 90 82 52 46 64 82 88 92 89 88 88 63 35 27 23 57 93 38 28 23 19 33 37 53
27 29 30 31 33 34 34 34 35 37 40 45 56 60 59 59 60 65 79 91 98 88 49 53 57 66 74 81 71 48 43 42 34 28 30 57 24 23 21 17 21 35 36
27 28 28 30 31 32 34 36 38 41 44 51 62 69 68 66 58 57 63 76 98 98 89 56 57 57 58 56 52 47 45 43 38 36 36 40 33 29 25 19 17 18 34
26 26 28 29 30 32 35 37 39 41 42 48 58 60 71 80 78 70 62 65 77 95 99 77 58 58 60 56 51 49 46 39 34 34 35 35 34 33 31 19 20 16 25
26 27 28 29 30 32 34 37 40 42 47 50 59 62 67 76 74 80 81 73 70 78 88 67 59 49 45 46 44 44 42 40 38 33 30 32 32 30 26 26 19 18 20
26 25 26 26 28 28 29 31 34 36 41 44 51 56 62 71 74 79 85 87 85 81 84 76 60 51 47 45 41 36 37 37 38 36 32 29 31 32 29 26 20 22 18
24 23 23 24 23 24 24 26 29 32 36 38 40 43 49 55 60 69 74 78 85 88 86 86 78 65 55 49 46 44 42 40 38 36 32 30 30 31 33 27 22 26 19
22 22 20 18 18 20 21 24 27 30 32 34 37 40 43 45 47 51 59 70 77 76 77 80 78 74 68 57 54 55 51 49 42 42 40 34 31 31 34 32 28 28 27
19 16 19 20 20 19 19 21 25 27 31 37 39 40 42 45 50 55 57 57 58 61 62 60 59 63 64 63 64 63 68 66 55 53 50 49 43 42 41 39 36 33 27
17 23 22 17 13 12 14 18 23 29 34 40 48 55 57 56 54 54 58 67 70 67 67 70 63 61 60 65 70 74 74 76 84 63 62 55 56 51 51 48 42 39 33
23 21 16 13 10 9 9 11 15 23 32 43 51 58 64 66 67 69 71 72 73 77 79 82 78 75 73 77 77 74 76 86 90 87 88 67 59 54 56 55 52 44 38
20 18 16 12 9 8 8 8 9 10 12 17 29 44 54 65 74 75 69 68 70 74 82 90 89 82 86 80 85 87 82 81 76 74 90 87 67 63 61 60 58 52 45
19 17 13 10 9 8 9 8 8 8 9 10 12 13 14 14 15 16 16 14 13 13 25 44 60 85 94 96 98 90 80 87 90 82 97 100 74 80 74 68 56 47 52
17 13 10 9 9 9 10 10 10 10 10 10 11 12 13 12 12 12 13 13 12 12 12 10 9 9 20 60 88 100 98 94 97 100 91 100 99 99 94 80 56 42 31
Wind_Speed
13 14 16 17 18 19 19 19 18 18 18 17 16 14 13 12 11 11 10 10 10 10 8 6 4 3 6 10 11 8 7 8 7 6 7 9 12 13 17 20 19 18 19
12 14 16 17 18 19 19 19 19 18 18 17 14 12 10 10 10 11 11 11 11 11 9 6 4 5 6 6 4 3 3 4 7 9 11 12 11 9 10 13 17 22 25
13 14 16 17 18 18 18 18 18 18 16 14 12 11 9 9 10 11 11 12 12 12 11 8 6 8 7 5 5 4 3 4 8 10 8 7 6 6 7 9 11 12 16
12 14 16 16 17 17 18 18 17 16 14 13 10 9 9 8 9 9 10 11 12 11 10 8 6 4 5 8 8 7 8 10 9 7 8 9 8 5 5 8 11 13 13
12 14 15 16 17 17 17 17 17 16 15 11 7 7 6 6 7 8 8 9 10 10 9 7 4 2 3 6 9 9 7 9 5 8 11 10 9 10 10 11 13 12 14
12 14 16 16 16 16 16 16 16 15 14 11 7 5 4 4 5 5 6 8 8 7 6 5 5 4 4 4 5 7 9 12 13 11 10 10 12 13 11 12 14 14 16
13 15 17 17 16 15 15 15 15 16 14 11 8 6 4 3 4 5 6 6 6 4 4 3 5 7 7 7 7 8 10 12 13 11 12 12 12 8 7 11 14 14 16
14 16 17 15 14 13 13 13 14 14 15 14 10 5 3 4 4 9 6 5 5 3 2 3 4 6 8 12 11 8 10 14 14 15 15 12 11 10 8 10 15 16 17
15 16 14 13 13 12 12 12 13 13 13 13 12 8 4 4 11 2 4 5 6 5 5 5 5 6 7 9 11 12 14 16 19 15 15 13 13 11 9 8 12 14 16
15 13 13 12 12 12 11 11 12 12 13 11 10 9 7 5 5 5 4 7 7 9 7 8 8 9 9 9 13 15 18 21 24 21 13 13 14 12 9 7 8 13 13
13 12 13 12 11 11 11 11 11 12 12 11 10 9 8 6 4 5 9 11 10 8 10 9 9 10 9 11 15 17 21 25 24 19 9 14 15 13 10 9 8 11 12
12 13 13 12 11 11 11 11 11 11 11 11 10 10 10 8 7 9 10 14 16 9 10 8 6 8 9 12 17 21 22 22 20 20 9 13 15 13 12 10 11 11 13
13 13 13 12 12 12 11 11 11 11 12 11 11 10 10 11 11 12 14 14 15 19 8 8 9 10 12 16 21 24 22 18 19 18 12 12 14 12 12 12 11 11 12
12 12 11 12 12 12 12 12 11 11 12 11 11 11 10 10 11 12 14 14 16 11 14 10 8 11 13 15 18 22 19 17 17 17 16 14 16 13 11 12 11 11 11
11 11 11 11 11 12 12 12 11 11 12 12 11 12 12 11 12 12 13 13 13 10 12 11 10 8 13 21 20 20 17 18 18 17 16 16 16 16 13 12 12 12 12
9 9 9 9 10 10 10 11 11 11 11 11 12 12 13 13 13 13 13 14 15 16 15 18 21 23 22 20 19 20 20 19 19 18 17 17 17 16 15 15 11 11 11
6 6 6 6 7 7 8 8 9 10 11 10 12 12 12 13 14 14 15 15 16 18 23 25 26 24 22 22 21 20 20 20 19 19 19 18 18 18 16 16 13 11 10
3 4 5 5 6 7 8 8 8 9 10 10 11 12 12 14 14 15 15 16 17 18 22 27 26 26 25 21 20 22 20 19 20 20 20 19 19 18 17 18 15 10 8
2 3 4 5 6 6 7 8 8 8 9 10 11 11 12 14 14 15 16 17 17 18 20 25 27 26 27 25 24 21 20 21 21 22 22 21 20 19 18 17 16 12 9
1 2 3 4 5 7 8 9 9 10 10 10 10 11 12 13 15 16 16 18 19 20 20 23 26 27 26 25 26 26 25 21 20 19 19 21 20 19 16 15 15 13 11
1 1 4 6 7 8 9 9 9 10 10 9 10 11 11 12 13 14 16 17 18 20 21 22 23 26 26 24 23 24 27 25 24 22 18 17 16 16 17 19 20 18 16
2 4 5 7 8 9 9 10 10 11 11 11 11 10 11 11 12 12 13 15 16 17 19 21 21 23 24 24 22 23 25 27 27 23 22 23 23 20 20 21 21 21 19
4 5 6 7 8 8 9 10 11 11 11 12 12 12 12 12 12 13 12 13 13 14 15 18 20 21 23 23 24 23 23 25 26 27 26 30 26 25 20 21 19 20 19
6 6 7 7 8 9 9 9 10 12 12 13 13 14 15 15 16 17 17 17 18 17 16 16 17 19 20 21 22 22 23 25 27 28 26 28 27 26 21 21 20 19 19
7 7 7 8 8 9 10 11 12 12 12 12 13 14 15 17 18 19 20 21 21 20 19 21 21 20 20 20 21 23 22 23 26 27 25 25 25 20 18 16 13 14 18
7 7 8 8 9 10 10 11 11 12 12 12 12 13 14 16 17 19 21 23 24 24 25 25 24 23 23 23 22 22 22 23 24 26 16 16 19 13 9 13 7 6 7
Wind_Direction
0 4 3 3 2 360 359 358 357 355 352 352 353 354 355 4 9 9 7 4 359 357 356 1 348 318 280 296 315 333 337 336 338 337 325 308 296 276 262 254 251 254 260
1 3 3 2 1 0 359 358 355 357 357 356 358 356 357 13 21 23 22 18 13 11 11 37 37 1 5 13 45 342 357 5 340 322 309 309 301 296 287 272 263 254 252
358 0 1 360 358 358 359 357 356 360 358 359 3 16 31 34 35 35 31 27 23 20 24 36 42 49 34 44 47 47 32 10 325 320 335 337 331 316 296 298 291 285 277
351 355 357 355 354 355 357 358 359 0 3 3 13 26 40 45 39 33 27 27 28 29 38 61 74 77 47 47 41 26 3 330 304 350 360 21 21 358 316 297 292 280 280
344 349 348 347 349 352 355 357 359 2 7 11 15 29 36 31 26 21 19 23 27 31 39 47 43 19 343 320 327 324 336 2 333 304 305 308 319 315 295 304 307 307 301
337 339 338 338 341 347 351 353 358 1 8 9 10 5 2 3 2 6 7 12 16 20 27 24 7 5 352 333 334 340 353 16 4 359 350 331 300 309 337 352 337 325 313
329 332 331 332 334 339 344 350 357 1 6 13 9 335 313 315 338 335 337 343 347 350 6 5 17 8 1 354 347 349 354 354 9 4 359 353 347 344 2 353 348 335 317
323 326 327 327 328 331 337 345 352 360 1 4 13 5 328 304 294 304 290 313 325 329 300 298 341 353 0 357 350 352 358 3 7 3 355 353 345 353 357 351 352 349 353
318 322 324 326 324 324 328 336 345 351 359 2 7 20 354 326 331 293 285 293 324 299 283 273 275 301 317 333 338 349 350 350 348 351 351 346 339 347 356 350 341 350 356
313 315 321 325 324 322 321 325 332 341 349 353 358 0 358 338 329 322 278 293 296 304 289 275 275 278 290 310 316 324 334 338 336 334 341 344 336 323 323 334 323 328 332
304 310 314 317 318 316 313 313 319 327 334 338 341 344 341 337 319 299 309 321 326 278 296 292 271 274 283 306 308 315 324 329 333 334 341 332 326 318 308 306 301 328 341
298 302 305 309 309 308 305 305 310 313 317 322 322 324 322 318 304 290 300 314 322 337 308 282 281 285 301 300 309 314 323 331 336 338 338 320 319 314 316 310 309 318 329
295 297 300 304 306 306 304 303 305 305 306 310 310 311 309 306 303 297 297 305 312 321 342 300 270 264 279 287 298 311 323 331 336 341 346 320 323 318 318 325 317 312 314
295 298 300 300 300 301 300 302 304 301 299 300 300 299 301 302 299 298 295 301 311 311 325 329 301 283 283 296 309 313 320 325 331 334 339 337 338 328 324 325 330 319 309
299 300 301 300 299 297 298 301 302 299 300 299 297 297 300 297 295 295 292 292 287 298 309 306 312 311 307 310 311 314 317 318 322 326 329 329 335 344 333 332 329 329 318
301 306 310 311 310 308 307 308 307 304 303 298 296 298 300 299 296 295 291 287 283 277 273 291 296 300 303 306 310 309 311 311 313 315 318 322 322 323 328 328 331 329 326
303 314 322 324 323 322 320 320 315 313 309 306 299 298 299 295 295 295 293 290 288 285 283 292 297 302 303 305 306 303 304 305 305 307 311 312 315 318 319 320 324 326 326
329 342 348 349 348 347 346 343 336 332 321 314 305 303 301 293 295 295 292 291 291 289 289 293 298 303 304 305 305 306 305 301 299 300 301 303 307 312 313 314 314 315 319
1 11 18 11 8 0 359 352 345 340 330 325 317 313 307 302 301 297 294 295 294 291 291 294 298 303 304 309 309 306 303 303 303 303 301 298 298 301 305 308 308 307 308
57 11 4 5 358 352 356 349 346 345 342 336 329 324 318 312 309 305 301 300 296 294 294 294 296 300 302 306 306 310 308 306 301 299 301 300 298 295 294 299 305 306 298
234 331 335 342 340 339 338 335 337 337 337 337 335 332 328 323 319 314 310 306 302 301 299 298 299 302 305 309 309 308 307 308 306 306 307 301 298 300 297 297 298 296 295
259 304 319 323 327 328 327 330 333 335 335 336 337 338 336 334 332 327 323 319 316 312 310 309 306 306 309 311 312 305 304 307 311 308 306 296 296 295 296 292 287 285 284
270 296 310 318 323 325 328 330 330 330 332 334 334 333 333 331 329 328 330 330 328 324 316 312 309 311 309 313 310 308 304 299 297 300 299 297 299 297 299 295 282 274 275
267 288 301 313 320 325 326 330 336 338 336 332 327 323 322 322 320 317 315 314 313 314 311 306 304 307 307 307 304 304 303 300 299 299 301 296 302 301 302 297 283 268 262
267 286 300 307 314 323 330 331 331 331 331 331 330 326 324 323 322 319 318 318 314 311 303 298 293 290 291 298 303 301 300 298 298 301 300 298 302 312 308 306 295 272 257
267 282 293 306 315 321 323 324 326 328 327 325 323 322 320 319 319 319 319 318 317 317 314 311 306 302 294 287 287 291 295 289 289 296 304 298 307 312 310 299 281 324 303